TIME,DELAY(SENSOR),PRES,OXYGEN,RAWTEMP,T(OPTODE),TCPHASE,FLUOR,BETA(BETA700),BETA(BETA412),BETA(BETA440),CDOM,C(CSC),ED(ED411.90),ED(ED443.80),ED(ED489.40),ED(ED554.70),LU(LU412.20),LU(LU443.80),LU(LU489.40),LU(LU555.00),COMP,TILTX,TILTY,CHECK
1363040734,5804,862.1099853515625000,176.7075958251953000,475.5006103515625000,8.2876243591308600,39.0031890869140600,74,494,95,78,80,11583,2146964297,2147515117,2147290669,2147508361,2147084909,2146927972,2147713764,2147118473,1611,-1,8,6883
1363044330,5808,959.1500244140625000,233.7342071533203000,544.9205932617188000,6.1287751197814940,36.7747993469238300,76,506,98,78,81,11568,2146962523,2147516937,2147297600,2147521618,2147087680,2146917092,2147729298,2147117165,181,-1,8,13046
1363047930,5806,984.9500122070312000,256.4393920898437500,563.4282226562500000,5.5472321510314940,35.9727783203125000,77,503,98,78,80,11567,2146963355,2147520173,2147300461,2147525714,2147089097,2146918939,2147730889,2147119323,218,-1,8,14836
1363051530,5803,1000.1300048828125000,260.1512145996094000,565.4592285156250000,5.4832439422607420,35.8344688415527340,77,498,97,80,80,11563,2146961462,2147518464,2147300452,2147522395,2147086189,2146916041,2147731382,2147118921,3361,-1,8,18321
1363055130,5805,1004.1199951171875000,259.2096862792969000,562.1652221679688000,5.5870060920715330,35.8179893493652340,76,503,97,79,81,11562,2146963337,2147520914,2147301440,2147524315,2147088539,2146917485,2147728640,2147120091,2883,-1,8,57799
1363058730,5806,1004.4699707031250000,258.9184875488281000,562.8676757812500000,5.5648818016052250,35.8447113037109400,75,501,98,77,80,11564,2146964370,2147517513,2147300882,2147520566,2147091062,2146916425,2147731602,2147121819,220,-1,8,24161
1363062330,5808,1005.7100219726562000,258.7864990234375000,565.2299194335938000,5.4904708862304690,35.8944511413574200,76,506,97,78,80,11557,2146961398,2147520182,2147299053,2147526564,2147087305,2146918994,2147729234,2147119780,128,-1,8,12876
1363065930,5809,1004.6300048828125000,260.4328002929687500,564.8826904296875000,5.5014109611511230,35.8103599548339840,76,501,98,79,81,11559,2146961261,2147517211,2147300717,2147525293,2147088219,2146907986,2147726573,2147122980,92,-1,8,60371
1363069530,5807,1001.3200073242188000,262.7112121582031000,566.9705200195312000,5.4356060028076170,35.7420196533203100,75,503,97,79,79,11556,2146966198,2147518939,2147299593,2147530395,2147087771,2146916964,2147730706,2147120438,3480,-1,8,23289
1363073130,5805,1005.7299804687500000,263.5172119140625000,567.7064819335938000,5.4124031066894530,35.7182197570800800,76,498,99,78,80,11555,2146962962,2147517714,2147296932,2147528292,2147087597,2146916635,2147733440,2147120694,3443,0,8,55314
1363076730,5802,1015.2800292968750000,261.0378112792969000,565.4572753906250000,5.4833049774169920,35.7926483154296900,75,498,100,79,80,11554,2146963008,2147518262,2147300736,2147525659,2147089252,2146922377,2147733897,2147118637,3514,-1,8,981
1363080330,5807,1014.1500244140625000,258.8075866699219000,562.4990234375000000,5.5764961242675780,35.8433494567871100,76,497,98,79,81,11556,2146961005,2147518875,2147300004,2147525805,2147089499,2146919689,2147729929,2147121124,3425,0,8,35410
1363083930,5810,1015.7000122070312000,258.4595031738281000,561.8845825195312000,5.5958399772644040,35.8488693237304700,75,499,98,77,80,11526,2146963136,2147517915,2147300745,2147524955,2147087680,2146917677,2147732489,2147120109,38,-1,8,16560
1363087530,5807,1015.9099731445312000,258.3846130371094000,562.7346801757812000,5.5690732002258300,35.8679618835449200,76,496,98,79,81,11527,2146965814,2147520941,2147300361,2147526052,2147087826,2146918080,2147730578,2147117970,3530,0,8,24820
1363091130,5804,1020.3800048828125000,259.0950927734375000,562.6583251953125000,5.5714778900146480,35.8326301574707000,75,498,98,79,80,11525,2146962459,2147522971,2147302601,2147529252,2147086930,2146916498,2147730614,2147117906,3148,0,8,58595
1363094730,5808,1013.7500000000000000,257.8720092773437500,563.3930053710938000,5.5483398437500000,35.9038887023925800,77,495,98,78,81,11521,2146963830,2147521307,2147300864,2147527076,2147087451,2146921627,2147728548,2147119579,190,0,8,44663
1363098330,5807,1020.9799804687500000,260.1642150878906000,563.6729125976562000,5.5395240783691410,35.8004798889160160,74,492,97,78,80,11524,2146960932,2147518080,2147298331,2147527954,2147089472,2146914587,2147730121,2147119140,378,-1,8,12673
1363101930,5807,1008.9500122070312000,259.0860900878906000,565.4838256835938000,5.4824681282043460,35.8850708007812500,76,495,99,80,80,11521,2146959414,2147519908,2147299428,2147526710,2147086966,2146915712,2147727853,2147116388,508,0,8,61685
1363105530,5806,1015.5000000000000000,260.5079956054687500,566.8983154296875000,5.4378848075866700,35.8435401916503900,75,495,98,79,81,11509,2146962880,2147522249,2147298322,2147524452,2147087597,2146915209,2147729901,2147119451,3479,-1,8,41334
1363109130,5807,1014.7000122070312000,262.4028015136719000,566.5468750000000000,5.4489607810974120,35.7489318847656250,76,495,97,78,79,11510,2146963190,2147522541,2147300397,2147528274,2147088704,2146918884,2147728758,2147120685,294,0,8,64495
1363112730,5807,1016.7600097656250000,261.7842102050781000,565.5996704101562000,5.4788169860839840,35.7602081298828100,75,498,97,80,80,11507,2146964141,2147521590,2147300178,2147525330,2147090578,2146914898,2147731072,2147118006,3462,0,8,37174
1363116330,5804,1013.6099853515625000,261.4880981445312500,565.6220092773438000,5.4781131744384770,35.7742500305175800,76,499,99,79,80,11508,2146959177,2147520274,2147301385,2147523062,2147086747,2146917101,2147730203,2147116516,3497,-1,8,54035
1363119930,5807,1023.5900268554688000,262.0252990722656000,565.6151733398438000,5.4783291816711430,35.7495307922363300,75,496,98,78,81,11508,2146963785,2147524562,2147303204,2147525961,2147088256,2146917952,2147734418,2147120950,2959,-1,8,42824
1363123530,5808,1014.6699829101562000,259.9847106933594000,564.4746704101562000,5.5142631530761720,35.8237800598144500,75,498,99,78,81,11507,2146966144,2147518436,2147297572,2147524406,2147087826,2146915456,2147733504,2147121206,9,0,8,55169
1363127130,5810,1021.5599975585938000,261.5209960937500000,565.4185180664062000,5.4845261573791500,35.7686691284179700,76,495,99,79,79,11504,2146964178,2147521828,2147302674,2147528045,2147087579,2146917915,2147735158,2147119515,74,-1,8,5735
1363130730,5807,1018.9000244140625000,260.6882934570312500,564.1517944335938000,5.5244388580322270,35.7846107482910160,74,496,96,78,80,11505,2146963913,2147520064,2147298011,2147524635,2147083108,2146916205,2147735305,2147122093,307,0,8,52753
1363134330,5808,1016.1400146484375000,260.1340026855469000,565.0197143554688000,5.4970932006835940,35.8268699645996100,74,499,98,80,81,11503,2146961581,2147520118,2147299017,2147525202,2147088722,2146914834,2147727716,2147117622,308,-1,8,28672
1363137930,5808,1021.4799804687500000,261.5898132324219000,565.9334716796875000,5.4682941436767580,35.7752189636230500,74,495,98,79,80,11505,2146965312,2147522614,2147300050,2147526637,2147089188,2146917156,2147730550,2147120182,137,0,8,48343
1363141530,5809,1012.4500122070312000,263.0759887695312500,567.1906127929688000,5.4286689758300780,35.7287216186523440,76,501,98,78,80,11497,2146962587,2147517577,2147300681,2147526829,2147088621,2146914340,2147731529,2147121353,2627,0,8,36797
1363145130,5807,1016.7000122070312000,265.6771850585937500,568.8748779296875000,5.3755531311035160,35.6398315429687500,76,497,98,79,80,11502,2146963885,2147515894,2147300928,2147528640,2147087670,2146916516,2147732608,2147118070,12,-1,8,39752
1363148730,5806,1008.1500244140625000,264.5697021484375000,569.9229736328125000,5.3424887657165530,35.7098007202148440,75,494,99,78,80,11498,2146965842,2147512530,2147298148,2147525988,2147087780,2146915968,2147732269,2147122578,711,0,8,27205
1363152330,5806,1016.8499755859375000,268.3494873046875000,570.8483886718750000,5.3132901191711430,35.5535316467285160,75,505,99,80,80,11499,2146963236,2147517878,2147301357,2147526427,2147089453,2146917531,2147734153,2147120630,699,0,8,30911
1363155930,5807,1018.4099731445312000,268.7856140136719000,571.0184936523438000,5.3079218864440920,35.5369796752929700,75,502,97,80,80,11498,2146964864,2147517220,2147300141,2147526939,2147091044,2146925906,2147727881,2147120667,882,0,8,35808
1363159530,5806,1011.1400146484375000,266.5014953613281000,570.4840087890625000,5.3247890472412110,35.6312294006347660,77,502,99,78,80,11489,2146963538,2147522038,2147306011,2147526994,2147089261,2146918537,2147733705,2147121865,3183,-1,8,6125
1363163130,5805,1018.5300292968750000,267.0393066406250000,569.6782836914062000,5.3502101898193360,35.5922203063964840,77,510,97,78,80,11492,2146962541,2147517083,2147299730,2147524690,2147092672,2146914578,2147731382,2147121554,3039,-1,8,28425
1363166730,5805,1017.5399780273438000,265.7616882324219000,569.3764038085938000,5.3597350120544430,35.6450996398925800,75,502,97,79,80,11491,2146964580,2147520594,2147300068,2147526683,2147088768,2146922432,2147735122,2147122313,3139,-1,8,34188
1363170330,5807,1020.5599975585938000,264.0025024414062500,567.4575195312500000,5.4202561378479000,35.6906700134277340,76,504,98,78,80,11490,2146964781,2147519378,2147302710,2147525339,2147089600,2146915446,2147732406,2147119771,3589,-1,8,15002
1363173930,5804,1018.9500122070312000,267.2326965332031000,570.1572875976562000,5.3350977897644040,35.5920295715332000,76,501,97,79,81,11489,2146964781,2147519104,2147303552,2147526482,2147089261,2146914404,2147730532,2147119478,2833,-1,8,51047
1363177530,5805,1021.1799926757812000,264.9414062500000000,568.0299072265625000,5.4022049903869630,35.6581382751464840,75,501,97,79,80,11486,2146961078,2147515611,2147300443,2147521508,2147090313,2146918317,2147733842,2147121938,3475,-1,8,7686
1363181130,5807,1016.3900146484375000,265.1983947753906000,570.0839233398438000,5.3374137878417970,35.6841697692871100,75,501,98,78,80,11485,2146964361,2147518646,2147302765,2147523300,2147090358,2146912868,2147730194,2147120155,1080,-1,8,14300
1363184730,5807,1018.1400146484375000,266.5013122558594000,570.0797119140625000,5.3375449180603030,35.6239204406738300,76,514,98,78,80,11485,2146967323,2147517494,2147298377,2147525458,2147086637,2146914157,2147735140,2147120521,120,-1,8,3814
1363185354,5804,1015.1300048828125000,266.4083862304687500,570.1433105468750000,5.3355388641357420,35.6292190551757800,76,512,98,79,79,11511,2146963355,2147515693,2147302857,2147525220,2147090294,2146913801,2147732379,2147116909,3334,-1,9,11273
